Weather History for Hermiston, OR

Change the Weather History Date:

Tuesday, November 12, 2013

  Actual Average Record
Temperature  
Mean Temperature 44 °F -  
Max Temperature 52 °F 50 °F 73 °F (1999)
Min Temperature 36 °F 34 °F 8 °F (2014)
Degree Days  
Heating Degree Days 20    
Moisture  
Dew Point 40 °F    
Average Humidity 86    
Maximum Humidity 100    
Minimum Humidity 69    
Precipitation  
Precipitation 0.00 in - - ()
Sea Level Pressure  
Sea Level Pressure 30.32 in    
Wind  
Wind Speed 3 mph (SSW)    
Max Wind Speed 10 mph    
Max Gust Speed -    
Visibility 6 miles    
Events      
Averages and records for this station are not official NWS values.
T = Trace of Precipitation, MM = Missing Value Source: NWS Daily Summary

Daily Weather History Graph

Daily Weather History Graph

Search for Another Location

Airport:

Trip Planner

Search our weather history database for the weather conditions in past years. The results will help you decide how hot, cold, wet, or windy it might be!

Date:

Astronomy

Nov. 12, 2013 Rise Set
Actual Time 6:53 AM PST 4:28 PM PST
Civil Twilight 6:21 AM PST 5:00 PM PST
Nautical Twilight 5:45 AM PST 5:36 PM PST
Astronomical Twilight 5:10 AM PST 6:11 PM PST
Moon 1:59 PM PST (11/12) 1:33 AM PST (11/12)
Length of Visible Light 10h 39m
Length of Day
9h 35m
Waxing Gibbous, 77% of the Moon is Illuminated
Nov 12
Waxing Gibbous
Nov 17
Full
Nov 25
Last Quarter
Dec 2
New
Dec 9
First Quarter

Hourly Weather History & Observations

Time (PST) Temp. Windchill Dew Point Humidity Pressure Visibility Wind Dir Wind Speed Gust Speed Precip Events Conditions
12:53 AM 43.0 °F 40.3 °F 39.9 °F 89% 30.24 in 5.0 mi West 4.6 mph - N/A   Overcast
1:53 AM 44.1 °F - 41.0 °F 89% 30.25 in 6.0 mi Calm Calm - N/A   Overcast
2:39 AM 42.1 °F - 39.9 °F 92% 30.25 in 7.0 mi Calm Calm - N/A   Scattered Clouds
2:53 AM 42.1 °F - 37.9 °F 85% 30.26 in 6.0 mi Calm Calm - N/A   Clear
3:53 AM 41.0 °F 39.0 °F 37.9 °F 89% 30.25 in 7.0 mi NW 3.5 mph - N/A   Clear
4:53 AM 39.9 °F 36.7 °F 37.9 °F 93% 30.29 in 4.0 mi West 4.6 mph - N/A   Clear
5:53 AM 39.9 °F - 39.0 °F 97% 30.30 in 4.0 mi Calm Calm - N/A   Partly Cloudy
6:53 AM 41.0 °F 37.1 °F 39.0 °F 93% 30.32 in 5.0 mi ESE 5.8 mph - N/A   Clear
7:53 AM 43.0 °F 40.3 °F 39.9 °F 89% 30.32 in 5.0 mi ESE 4.6 mph - N/A   Clear
8:53 AM 46.0 °F 41.0 °F 42.1 °F 86% 30.29 in 7.0 mi ESE 10.4 mph - N/A   Overcast
9:53 AM 48.9 °F - 42.1 °F 77% 30.31 in 8.0 mi NNW 5.8 mph - 0.00 in   Mostly Cloudy
10:53 AM 50.0 °F - 43.0 °F 77% 30.31 in 7.0 mi NNW 6.9 mph - N/A   Overcast
11:53 AM 51.1 °F - 42.1 °F 71% 30.30 in 6.0 mi WNW 5.8 mph - N/A   Haze
12:53 PM 50.0 °F - 43.0 °F 77% 30.31 in 6.0 mi West 5.8 mph - N/A   Haze
1:53 PM 52.0 °F - 42.1 °F 69% 30.32 in 8.0 mi WSW 3.5 mph - N/A   Clear
2:53 PM 52.0 °F - 43.0 °F 71% 30.31 in 10.0 mi SE 6.9 mph - N/A   Scattered Clouds
3:53 PM 52.0 °F - 42.1 °F 69% 30.32 in 10.0 mi SE 3.5 mph - N/A   Overcast
4:53 PM 48.0 °F - 42.1 °F 80% 30.32 in 10.0 mi Calm Calm - N/A   Mostly Cloudy
5:53 PM 46.9 °F - 42.1 °F 83% 30.34 in 10.0 mi Calm Calm - N/A   Overcast
6:53 PM 45.0 °F - 42.1 °F 90% 30.35 in 9.0 mi Calm Calm - N/A   Mostly Cloudy
7:53 PM 43.0 °F 41.3 °F 39.9 °F 89% 30.35 in 9.0 mi SE 3.5 mph - N/A   Mostly Cloudy
8:53 PM 43.0 °F 41.3 °F 41.0 °F 93% 30.35 in 7.0 mi South 3.5 mph - N/A   Clear
9:53 PM 39.0 °F 35.7 °F 37.9 °F 96% 30.36 in 3.0 mi South 4.6 mph - N/A   Scattered Clouds
10:53 PM 39.0 °F - 37.0 °F 93% 30.37 in 6.0 mi Calm Calm - N/A   Scattered Clouds
11:29 PM 37.9 °F - 36.0 °F 93% 30.37 in 2.0 mi Calm Calm - N/A   Clear
11:42 PM 37.9 °F - 36.0 °F 93% 30.37 in 1.2 mi Calm Calm - N/A   Clear
11:53 PM 37.9 °F - 37.9 °F 100% 30.38 in 2.5 mi Calm Calm - N/A   Partly Cloudy
11:58 PM 36.0 °F - 35.1 °F 97% 30.37 in 0.8 mi Calm Calm - N/A   Clear